| time (UTC) | temp C | wind direction | speed KPH | gust KPH | rain 1hr cm | rain 24hr cm | rain mn cm | humidity % | barometer mb |
| 20260503054524 | 9 | 64 | 0.0 | 1.6 | 0.00 | 0.00 | 0.00 | 81 | 1019.4 |
| 20260503053020 | 8 | 65 | 0.0 | 1.6 | 0.00 | 0.00 | 0.00 | 82 | 1019.4 |
| 20260503051517 | 7 | 69 | 0.0 | 1.6 | 0.00 | 0.00 | 0.00 | 84 | 1019.4 |
| 20260503050023 | 7 | 195 | 0.0 | 0.0 | 0.00 | 0.00 | 0.00 | 87 | 1019.3 |
| 20260503044518 | 6 | 196 | 0.0 | 1.6 | 0.00 | 0.00 | 0.00 | 90 | 1019.4 |
| 20260503043013 | 5 | 195 | 0.0 | 0.0 | 0.00 | 0.00 | 0.00 | 93 | 1019.2 |
| 20260503041513 | 5 | 195 | 0.0 | 0.0 | 0.00 | 0.00 | 0.00 | 93 | 1019.2 |
| 20260503040012 | 5 | 195 | 0.0 | 0.0 | 0.00 | 0.00 | 0.00 | 93 | 1019.1 |
| 20260503034511 | 4 | 195 | 0.0 | 0.0 | 0.00 | 0.00 | 0.00 | 93 | 1019.1 |
| 20260503033009 | 4 | 195 | 0.0 | 0.0 | 0.00 | 0.00 | 0.00 | 93 | 1019.1 |
| 20260503031508 | 5 | 195 | 0.0 | 0.0 | 0.00 | 0.00 | 0.00 | 93 | 1019.0 |
| 20260503030007 | 5 | 195 | 0.0 | 0.0 | 0.00 | 0.00 | 0.00 | 93 | 1018.9 |
| 20260503024505 | 5 | 195 | 0.0 | 1.6 | 0.00 | 0.00 | 0.00 | 93 | 1018.9 |
| 20260503023003 | 5 | 195 | 0.0 | 1.6 | 0.00 | 0.00 | 0.00 | 92 | 1019.0 |
| 20260503021503 | 5 | 195 | 0.0 | 0.0 | 0.00 | 0.00 | 0.00 | 92 | 1018.9 |
| 20260503020100 | 5 | 195 | 0.0 | 0.0 | 0.00 | 0.00 | 0.00 | 90 | 1018.8 |
| 20260503014610 | 6 | 195 | 0.0 | 0.0 | 0.00 | 0.00 | 0.00 | 90 | 1018.9 |
| 20260503013056 | 6 | 195 | 0.0 | 0.0 | 0.00 | 0.00 | 0.00 | 89 | 1018.9 |
| 20260503011600 | 6 | 196 | 0.0 | 0.0 | 0.00 | 0.00 | 0.00 | 90 | 1019.0 |
| 20260503010053 | 6 | 195 | 0.0 | 0.0 | 0.00 | 0.00 | 0.00 | 89 | 1019.0 |
| 20260503004551 | 6 | 195 | 0.0 | 0.0 | 0.00 | 0.00 | 0.00 | 89 | 1019.0 |
| 20260503003049 | 6 | 195 | 0.0 | 0.0 | 0.00 | 0.00 | 0.00 | 88 | 1019.1 |
| 20260503001557 | 6 | 195 | 0.0 | 0.0 | 0.00 | 0.00 | 0.00 | 86 | 1019.2 |
| 20260503000045 | 7 | 195 | 0.0 | 0.0 | 0.00 | 0.00 | 0.00 | 86 | 1019.2 |
| 20260502234545 | 7 | 195 | 0.0 | 1.6 | 0.00 | 0.00 | 0.00 | 85 | 1019.4 |
| 20260502233045 | 7 | 196 | 0.0 | 0.0 | 0.00 | 0.00 | 0.00 | 86 | 1019.5 |
| 20260502231539 | 7 | 195 | 0.0 | 0.0 | 0.00 | 0.00 | 0.00 | 84 | 1019.6 |
| 20260502230038 | 7 | 195 | 0.0 | 0.0 | 0.00 | 0.00 | 0.00 | 83 | 1019.6 |
| 20260502224535 | 7 | 195 | 0.0 | 0.0 | 0.00 | 0.00 | 0.00 | 83 | 1019.8 |
| 20260502223033 | 7 | 196 | 0.0 | 0.0 | 0.00 | 0.00 | 0.00 | 81 | 1019.8 |
| 20260502221539 | 8 | 195 | 0.0 | 0.0 | 0.00 | 0.00 | 0.00 | 81 | 1019.8 |
| 20260502220029 | 8 | 195 | 0.0 | 0.0 | 0.00 | 0.00 | 0.00 | 79 | 1020.0 |
| 20260502214528 | 8 | 195 | 0.0 | 1.6 | 0.00 | 0.00 | 0.00 | 79 | 1019.9 |
| 20260502213027 | 8 | 195 | 0.0 | 1.6 | 0.00 | 0.00 | 0.00 | 79 | 1020.0 |
| 20260502211527 | 8 | 195 | 0.0 | 0.0 | 0.00 | 0.00 | 0.00 | 77 | 1020.0 |
| 20260502210030 | 8 | 195 | 0.0 | 1.6 | 0.00 | 0.00 | 0.00 | 77 | 1020.2 |
| 20260502204528 | 9 | 195 | 0.0 | 0.0 | 0.00 | 0.00 | 0.00 | 75 | 1020.3 |
| 20260502203025 | 10 | 195 | 0.0 | 0.0 | 0.00 | 0.00 | 0.00 | 74 | 1020.4 |
| 20260502201525 | 10 | 195 | 0.0 | 0.0 | 0.00 | 0.00 | 0.00 | 70 | 1020.5 |
| 20260502200025 | 11 | 196 | 0.0 | 0.0 | 0.00 | 0.00 | 0.00 | 68 | 1020.4 |
| 20260502194523 | 11 | 195 | 0.0 | 0.0 | 0.00 | 0.00 | 0.00 | 68 | 1020.4 |
| 20260502193024 | 11 | 195 | 0.0 | 0.0 | 0.00 | 0.00 | 0.00 | 63 | 1020.4 |
| 20260502191523 | 12 | 195 | 0.0 | 0.0 | 0.00 | 0.00 | 0.00 | 62 | 1020.3 |
| 20260502190023 | 12 | 195 | 0.0 | 0.0 | 0.00 | 0.00 | 0.00 | 61 | 1020.2 |
| 20260502184533 | 13 | 196 | 0.0 | 1.6 | 0.00 | 0.00 | 0.00 | 58 | 1020.1 |
| 20260502183028 | 13 | 195 | 0.0 | 1.6 | 0.00 | 0.00 | 0.00 | 58 | 1019.9 |
| 20260502181521 | 15 | 195 | 0.0 | 1.6 | 0.00 | 0.00 | 0.00 | 56 | 1019.8 |
| 20260502163017 | 21 | 67 | 0.0 | 3.2 | 0.00 | 0.00 | 0.00 | 35 | 1019.8 |
| 20260502161514 | 21 | 163 | 0.0 | 8.0 | 0.00 | 0.00 | 0.00 | 36 | 1020.0 |
| 20260502151510 | 23 | 3 | 3.2 | 8.0 | 0.00 | 0.00 | 0.00 | 31 | 1020.6 |
| 20260502123043 | 21 | 281 | 0.0 | 8.0 | 0.00 | 0.00 | 0.00 | 35 | 1022.4 |
| 20260502121549 | 22 | 10 | 3.2 | 9.7 | 0.00 | 0.00 | 0.00 | 34 | 1022.7 |
| 20260502114540 | 21 | 60 | 3.2 | 8.0 | 0.00 | 0.00 | 0.00 | 36 | 1023.0 |
| 20260502113034 | 21 | 31 | 0.0 | 6.4 | 0.00 | 0.00 | 0.00 | 36 | 1023.2 |
| 20260502111532 | 21 | 315 | 1.6 | 11.3 | 0.00 | 0.00 | 0.00 | 37 | 1023.4 |
| 20260502110029 | 21 | 6 | 0.0 | 9.7 | 0.00 | 0.00 | 0.00 | 36 | 1023.5 |
| 20260502104527 | 21 | 338 | 3.2 | 9.7 | 0.00 | 0.00 | 0.00 | 38 | 1023.8 |
| 20260502103029 | 21 | 30 | 1.6 | 9.7 | 0.00 | 0.00 | 0.00 | 39 | 1023.8 |
| 20260502101534 | 21 | 323 | 3.2 | 8.0 | 0.00 | 0.00 | 0.00 | 39 | 1024.0 |
| 20260502091515 | 20 | 15 | 1.6 | 11.3 | 0.00 | 0.00 | 0.00 | 42 | 1024.5 |
| 20260502070104 | 17 | 65 | 0.0 | 6.4 | 0.00 | 0.00 | 0.00 | 53 | 1025.2 |
| 20260502064551 | 16 | 32 | 0.0 | 4.8 | 0.00 | 0.00 | 0.00 | 59 | 1025.2 |
| 20260502063047 | 15 | 40 | 1.6 | 4.8 | 0.00 | 0.00 | 0.00 | 61 | 1025.2 |
| 20260502061544 | 13 | 41 | 1.6 | 3.2 | 0.00 | 0.00 | 0.00 | 66 | 1025.2 |
| 20260502060039 | 12 | 41 | 0.0 | 1.6 | 0.00 | 0.00 | 0.00 | 71 | 1025.2 |